Edinburg, TX

5:19 PM CST on February 22, 2018 (GMT -0600)
Edinburg

Weather History for KEBG - November, 2012

Change the Weather History Date:

Monday, November 5, 2012

  Actual Average (KMFE) Record (KMFE)
Temperature  
Mean Temperature 78 °F -  
Max Temperature 89 °F 79 °F 95 °F (2017)
Min Temperature 66 °F 60 °F 40 °F (1970)
Cooling Degree Days 12    
Growing Degree Days 28 (Base 50)    
Moisture  
Dew Point 65 °F    
Average Humidity 72    
Maximum Humidity 93    
Minimum Humidity 39    
Precipitation  
Precipitation 0.01 in - - ()
Sea Level Pressure  
Sea Level Pressure 30.02 in    
Wind  
Wind Speed 2 mph (SSE)    
Max Wind Speed 8 mph    
Max Gust Speed -    
Visibility 6 miles    
Events      
Averages and records for this station are not official NWS values.
T = Trace of Precipitation, MM = Missing Value Source: NWS Daily Summary

Daily Weather History Graph

Daily Weather History Graph

Search for Another Location

Airport or City:

Trip Planner

Search our weather history database for the weather conditions in past years. The results will help you decide how hot, cold, wet, or windy it might be!

Date:

Astronomy

Nov. 05, 2012 Rise Set
Actual Time 6:44 AM CST 5:47 PM CST
Civil Twilight 6:20 AM CST 6:11 PM CST
Nautical Twilight 5:53 AM CST 6:38 PM CST
Astronomical Twilight 5:25 AM CST 7:06 PM CST
Moon 11:24 PM CST (11/5) 12:03 PM CST (11/5)
Length of Visible Light 11h 50m
Length of Day
11h 02m
Waning Gibbous, 62% of the Moon is Illuminated
Nov 5
Waning Gibbous
Nov 6
Last Quarter
Nov 13
New
Nov 20
First Quarter
Nov 28
Full

Hourly Weather History & Observations

Time (CST) Temp. Heat Index Dew Point Humidity Pressure Visibility Wind Dir Wind Speed Gust Speed Precip Events Conditions
12:15 AM 70.7 °F - 67.1 °F 88% 30.07 in 10.0 mi Calm Calm - N/A   Clear
12:35 AM 70.0 °F - 66.9 °F 90% 30.06 in 7.0 mi Calm Calm - N/A   Clear
12:55 AM 70.0 °F - 67.1 °F 91% 30.06 in 7.0 mi Calm Calm - N/A   Clear
1:15 AM 69.3 °F - 66.4 °F 91% 30.06 in 7.0 mi Calm Calm - N/A   Clear
1:35 AM 69.1 °F - 66.2 °F 91% 30.06 in 5.0 mi Calm Calm - N/A   Clear
1:55 AM 69.1 °F - 66.4 °F 91% 30.06 in 5.0 mi Calm Calm - N/A   Clear
2:15 AM 68.9 °F - 66.4 °F 92% 30.06 in 4.0 mi Calm Calm - N/A   Clear
2:35 AM 68.5 °F - 66.0 °F 92% 30.05 in 2.5 mi Calm Calm - N/A   Clear
2:55 AM 68.2 °F - 65.7 °F 92% 30.04 in 4.0 mi Calm Calm - N/A   Clear
3:15 AM 68.4 °F - 66.2 °F 93% 30.04 in 4.0 mi Calm Calm - N/A   Clear
3:35 AM 68.2 °F - 65.8 °F 92% 30.04 in 3.0 mi Calm Calm - N/A   Clear
3:55 AM 67.8 °F - 65.5 °F 92% 30.04 in 4.0 mi Calm Calm - N/A   Clear
4:15 AM 67.6 °F - 65.3 °F 92% 30.04 in 2.0 mi Calm Calm - N/A   Clear
4:35 AM 67.5 °F - 65.3 °F 93% 30.04 in 0.8 mi Calm Calm - N/A   Mist
4:55 AM 67.5 °F - 65.3 °F 93% 30.04 in 1.2 mi Calm Calm - N/A   Mist
5:15 AM 66.7 °F - 64.6 °F 93% 30.04 in 3.0 mi Calm Calm - N/A   Clear
5:35 AM 66.9 °F - 64.8 °F 93% 30.04 in 4.0 mi Calm Calm - N/A   Clear
6:15 AM 66.2 °F - 63.9 °F 92% 30.04 in 5.0 mi Calm Calm - N/A   Clear
6:35 AM 66.2 °F - 64.0 °F 93% 30.04 in 4.0 mi Calm Calm - N/A   Clear
6:55 AM 66.4 °F - 64.4 °F 93% 30.05 in 4.0 mi Calm Calm - N/A   Clear
7:15 AM 66.6 °F - 64.4 °F 93% 30.05 in 4.0 mi Calm Calm - N/A   Clear
7:35 AM 67.3 °F - 65.3 °F 93% 30.06 in 5.0 mi Calm Calm - N/A   Scattered Clouds
7:55 AM 68.0 °F - 65.7 °F 92% 30.06 in 0.8 mi Calm Calm - N/A   Overcast
8:15 AM 68.4 °F - 66.2 °F 93% 30.07 in 2.5 mi Calm Calm - N/A   Mostly Cloudy
8:35 AM 69.1 °F - 67.1 °F 93% 30.08 in 5.0 mi Calm Calm - N/A   Clear
8:55 AM 70.3 °F - 68.0 °F 92% 30.08 in 7.0 mi Calm Calm - N/A   Clear
9:15 AM 71.6 °F - 68.7 °F 91% 30.09 in 5.0 mi NNE 3.5 mph - N/A   Clear
9:35 AM 73.6 °F - 67.6 °F 82% 30.08 in 10.0 mi Calm Calm - N/A   Clear
9:55 AM 77.0 °F - 66.7 °F 70% 30.08 in 7.0 mi Calm Calm - N/A   Clear
10:15 AM 78.8 °F - 67.1 °F 67% 30.08 in 7.0 mi Calm Calm - N/A   Clear
10:35 AM 79.0 °F - 66.4 °F 65% 30.08 in 7.0 mi Calm Calm - N/A   Clear
10:55 AM 80.6 °F 82.9 °F 66.7 °F 63% 30.08 in 7.0 mi SSE 3.5 mph - N/A   Clear
11:15 AM 81.9 °F 84.4 °F 67.3 °F 61% 30.07 in 5.0 mi South 4.6 mph - N/A   Haze
11:35 AM 82.6 °F 85.1 °F 66.9 °F 59% 30.06 in 7.0 mi SSW 3.5 mph - N/A   Clear
11:55 AM 83.3 °F 86.2 °F 67.6 °F 59% 30.05 in 7.0 mi Calm Calm - N/A   Clear
12:15 PM 84.4 °F 86.8 °F 66.4 °F 55% 30.04 in 10.0 mi South 3.5 mph - N/A   Clear
12:35 PM 85.1 °F 86.9 °F 65.3 °F 51% 30.02 in 7.0 mi South 3.5 mph - N/A   Clear
12:55 PM 86.2 °F 87.6 °F 64.4 °F 48% 30.01 in 5.0 mi SSE 3.5 mph - N/A   Haze
1:15 PM 87.4 °F 88.8 °F 64.4 °F 46% 29.99 in 4.0 mi SSE 5.8 mph - N/A   Haze
1:35 PM 87.8 °F 88.5 °F 62.6 °F 43% 29.98 in 7.0 mi Calm Calm - N/A   Clear
1:55 PM 89.1 °F 89.6 °F 62.4 °F 41% 29.98 in 10.0 mi South 3.5 mph - N/A   Clear
2:15 PM 88.7 °F 89.1 °F 62.1 °F 41% 29.97 in 10.0 mi Calm Calm - N/A   Clear
2:35 PM 89.1 °F 89.3 °F 61.5 °F 40% 29.96 in 7.0 mi Calm Calm - N/A   Clear
2:55 PM 89.4 °F 89.8 °F 62.2 °F 40% 29.96 in 7.0 mi East 4.6 mph - N/A   Clear
3:15 PM 89.1 °F 89.6 °F 62.4 °F 41% 29.95 in 7.0 mi ENE 4.6 mph - N/A   Clear
3:35 PM 89.6 °F 90.1 °F 62.4 °F 40% 29.95 in 5.0 mi East 6.9 mph - N/A   Haze
3:55 PM 89.1 °F 89.0 °F 61.3 °F 39% 29.95 in 5.0 mi ESE 3.5 mph - N/A   Haze
4:15 PM 89.1 °F 89.3 °F 62.1 °F 40% 29.94 in 7.0 mi ESE 5.8 mph - N/A   Clear
4:35 PM 88.9 °F 88.8 °F 60.6 °F 39% 29.94 in 10.0 mi SE 6.9 mph - N/A   Clear
4:55 PM 88.2 °F 88.1 °F 61.3 °F 40% 29.94 in 10.0 mi SE 5.8 mph - N/A   Clear
5:15 PM 87.4 °F 88.2 °F 63.0 °F 44% 29.95 in 7.0 mi SE 4.6 mph - N/A   Clear
5:35 PM 85.1 °F 85.9 °F 63.0 °F 47% 29.95 in 7.0 mi SSE 4.6 mph - N/A   Clear
5:55 PM 82.9 °F 84.4 °F 64.0 °F 53% 29.96 in 7.0 mi SSE 4.6 mph - N/A   Clear
6:15 PM 81.9 °F 83.5 °F 64.6 °F 56% 29.96 in 10.0 mi SE 5.8 mph - N/A   Clear
6:35 PM 81.5 °F 83.3 °F 64.9 °F 57% 29.97 in 7.0 mi NE 5.8 mph - N/A   Clear
6:55 PM 79.5 °F - 65.5 °F 62% 29.97 in 7.0 mi South 4.6 mph - N/A   Clear
7:15 PM 78.4 °F - 65.5 °F 64% 29.98 in 7.0 mi SSE 4.6 mph - N/A   Clear
7:35 PM 78.1 °F - 65.3 °F 65% 29.99 in 7.0 mi SSE 4.6 mph - N/A   Clear
7:55 PM 76.8 °F - 66.2 °F 70% 30.00 in 7.0 mi SE 3.5 mph - N/A   Clear
8:15 PM 77.2 °F - 64.6 °F 65% 30.01 in 7.0 mi SSE 3.5 mph - N/A   Clear
8:35 PM 76.1 °F - 65.5 °F 70% 30.01 in 7.0 mi SSE 5.8 mph - N/A   Clear
8:55 PM 75.2 °F - 66.0 °F 73% 30.02 in 7.0 mi South 5.8 mph - N/A   Clear
9:15 PM 75.2 °F - 65.8 °F 73% 30.02 in 7.0 mi South 5.8 mph - N/A   Clear
9:35 PM 75.7 °F - 67.1 °F 74% 30.02 in 10.0 mi South 6.9 mph - N/A   Clear
9:55 PM 76.1 °F - 67.6 °F 75% 30.02 in 7.0 mi South 8.1 mph - N/A   Clear
10:15 PM 75.7 °F - 68.0 °F 77% 30.02 in 10.0 mi South 6.9 mph - N/A   Clear
10:35 PM 75.4 °F - 68.4 °F 79% 30.02 in 7.0 mi South 6.9 mph - N/A   Clear
10:55 PM 75.4 °F - 68.9 °F 80% 30.02 in 10.0 mi South 5.8 mph - N/A   Clear
11:15 PM 75.2 °F - 69.3 °F 82% 30.02 in 7.0 mi South 6.9 mph - N/A   Clear
11:35 PM 75.2 °F - 69.8 °F 83% 30.01 in 7.0 mi South 6.9 mph - N/A   Clear
11:55 PM 75.2 °F - 70.0 °F 84% 30.01 in 7.0 mi South 6.9 mph - N/A   Clear